EW4993 Weather Reports


Display with metric or nautical units.
time (UTC)temp
F
wind
direction
speed
MPH
gust
MPH
rain 1hr
in
rain 24hr
in
rain mn
in
humidity
%
barometer
mb
20260905143033 81 187 6.0 10.0 0.00 0.00 0.00 49 989.6
20260905141533 80 218 2.0 5.0 0.00 0.00 0.00 36 989.7
20260905140028 79 194 4.0 6.0 0.00 0.00 0.00 31 989.6
20260905134525 77 195 1.0 4.0 0.00 0.00 0.00 26 989.5
20260905133020 76 213 0.0 0.0 0.00 0.00 0.00 23 989.3
20260905131503 75 215 0.0 0.0 0.00 0.00 0.00 23 989.4
20260905130059 74 216 0.0 0.0 0.00 0.00 0.00 23 989.1
20260905124538 73 216 0.0 0.0 0.00 0.00 0.00 25 989.0
20260905123039 73 216 0.0 0.0 0.00 0.00 0.00 29 988.7
20260905121522 73 216 0.0 0.0 0.00 0.00 0.00 29 988.6
20260905120024 73 216 0.0 0.0 0.00 0.00 0.00 33 988.5
20260905114520 74 216 0.0 0.0 0.00 0.01 0.00 32 988.4
20260905113017 73 216 0.0 0.0 0.00 0.01 0.00 34 988.3
20260905111518 74 216 2.0 3.0 0.00 0.01 0.00 37 988.2
20260905110012 75 216 0.0 0.0 0.00 0.01 0.00 35 988.2
20260905104517 75 216 0.0 0.0 0.00 0.01 0.00 34 988.1
20260905103009 76 216 0.0 0.0 0.00 0.01 0.00 36 988.1
20260905101551 76 217 0.0 0.0 0.00 0.01 0.00 37 988.1
20260905100046 76 216 0.0 0.0 0.00 0.01 0.00 41 988.0
20260905094613 76 217 1.0 3.0 0.00 0.01 0.00 43 987.9
20260905093032 76 216 2.0 5.0 0.00 0.01 0.00 44 987.9
20260905091530 77 223 3.0 5.0 0.00 0.01 0.00 43 988.0
20260905090031 77 235 4.0 7.0 0.00 0.01 0.00 44 988.1
20260905084525 77 238 4.0 5.0 0.00 0.01 0.01 48 988.1
20260905083024 77 240 4.0 7.0 0.00 0.01 0.01 50 988.0
20260905081523 77 239 5.0 8.0 0.00 0.01 0.01 52 988.1
20260905080022 77 234 4.0 7.0 0.00 0.01 0.01 55 988.2
20260905074512 77 211 4.0 8.0 0.00 0.01 0.01 57 988.2
20260905073011 78 221 3.0 6.0 0.00 0.01 0.01 60 988.3
20260905071509 78 200 4.0 7.0 0.00 0.01 0.01 61 988.3
20260905070009 78 203 5.0 7.0 0.00 0.01 0.01 61 988.5
20260905064508 78 216 4.0 6.0 0.00 0.01 0.01 62 988.6
20260905063008 78 210 3.0 5.0 0.00 0.01 0.01 64 988.6
20260905061508 79 208 3.0 5.0 0.00 0.01 0.01 64 988.7
20260905060009 79 207 3.0 6.0 0.00 0.01 0.01 65 988.8
20260905054608 79 210 3.0 6.0 0.00 0.01 0.01 65 988.6
20260905053049 79 188 3.0 6.0 0.00 0.01 0.01 66 988.7
20260905051604 79 185 2.0 4.0 0.00 0.01 0.01 67 988.7
20260905050030 80 184 3.0 5.0 0.00 0.01 0.01 68 988.8
20260905044529 80 184 2.0 5.0 0.00 0.01 0.01 68 988.7
20260905043017 81 184 3.0 5.0 0.00 0.01 0.01 68 988.7
20260905041511 81 179 4.0 7.0 0.00 0.01 0.01 68 988.6
20260905040106 82 177 5.0 7.0 0.00 0.01 0.01 68 988.6
20260905034554 82 178 5.0 7.0 0.00 0.01 0.01 68 988.6
20260905033032 82 175 4.0 7.0 0.00 0.01 0.01 68 988.6
20260905031538 83 169 4.0 6.0 0.00 0.01 0.01 68 988.4
20260905030018 83 155 3.0 6.0 0.00 0.01 0.01 68 988.4
20260905024537 84 153 3.0 7.0 0.00 0.01 0.01 67 988.5
20260905023021 84 165 4.0 7.0 0.00 0.01 0.01 67 988.2
20260905021515 85 171 6.0 7.0 0.00 0.01 0.01 67 988.0
20260905020015 85 169 7.0 9.0 0.00 0.01 0.01 67 987.8
20260905014514 85 159 6.0 10.0 0.00 0.01 0.01 67 987.5
20260905013013 86 163 6.0 10.0 0.00 0.01 0.01 67 987.6
20260905011512 87 159 5.0 9.0 0.00 0.01 0.01 65 987.4
20260905010012 87 167 7.0 11.0 0.00 0.01 0.01 64 987.2
20260905004511 87 153 7.0 10.0 0.00 0.01 0.01 62 987.0
20260905003054 87 153 6.0 11.0 0.00 0.01 0.01 61 987.0
20260905001554 87 190 7.0 9.0 0.00 0.01 0.01 60 986.9
20260905000036 87 176 6.0 10.0 0.00 0.01 0.01 60 987.0
20260904234537 88 200 7.0 11.0 0.00 0.01 0.01 59 986.9
20260904233016 89 184 8.0 15.0 0.00 0.01 0.01 58 986.8
20260904231516 89 155 10.0 17.0 0.00 0.01 0.01 57 986.8
20260904230109 91 150 11.0 17.0 0.00 0.01 0.01 54 986.7
20260904224615 94 137 11.0 17.0 0.00 0.01 0.01 49 986.6
20260904223058 94 124 9.0 16.0 0.00 0.01 0.01 45 986.7
20260904221539 94 138 10.0 18.0 0.00 0.01 0.01 45 986.4
20260904220025 95 138 8.0 16.0 0.00 0.01 0.01 43 986.6
20260904214523 94 140 9.0 16.0 0.00 0.01 0.01 47 986.9
20260904213018 94 115 9.0 16.0 0.00 0.01 0.01 51 987.2
20260904211516 93 132 10.0 20.0 0.00 0.01 0.01 51 987.3
20260904210016 94 206 6.0 13.0 0.00 0.01 0.01 44 987.3
20260904204513 94 150 9.0 17.0 0.00 0.01 0.01 44 987.5
20260904203011 93 179 6.0 14.0 0.00 0.01 0.01 49 987.7
20260904201509 93 211 10.0 18.0 0.00 0.01 0.01 53 987.9
20260904200115 92 240 9.0 15.0 0.00 0.01 0.01 54 988.1
20260904194554 92 210 6.0 13.0 0.00 0.01 0.01 54 988.2
20260904193051 92 195 8.0 14.0 0.00 0.01 0.01 54 988.4
20260904191549 91 193 8.0 12.0 0.00 0.01 0.01 55 988.5
20260904190048 91 200 8.0 15.0 0.00 0.01 0.01 54 988.9
20260904184548 90 184 11.0 18.0 0.00 0.01 0.01 55 989.0
20260904183047 91 192 9.0 17.0 0.00 0.01 0.01 52 989.0
20260904181546 91 205 10.0 15.0 0.00 0.01 0.01 52 989.0
20260904180028 91 218 11.0 15.0 0.00 0.01 0.01 53 989.3
20260904174526 91 225 9.0 19.0 0.00 0.01 0.01 51 989.5
20260904173007 90 166 7.0 14.0 0.00 0.01 0.01 57 989.6
20260904171505 89 198 10.0 14.0 0.00 0.01 0.01 61 989.6
20260904170054 89 180 9.0 14.0 0.00 0.01 0.01 63 989.7
20260904164553 89 201 7.0 16.0 0.00 0.01 0.01 61 989.7
20260904163055 87 218 4.0 10.0 0.00 0.01 0.01 63 989.7
20260904161556 87 167 5.0 12.0 0.00 0.01 0.01 66 989.8
20260904160046 86 225 10.0 16.0 0.00 0.01 0.01 66 989.6
20260904154544 85 219 7.0 14.0 0.00 0.01 0.01 67 989.8
20260904153102 84 221 10.0 12.0 0.00 0.01 0.01 67 989.6
20260904151540 84 233 8.0 12.0 0.00 0.01 0.01 66 989.6
20260904150023 83 236 11.0 16.0 0.00 0.01 0.01 63 989.5
20260904144518 82 250 9.0 14.0 0.00 0.01 0.01 57 989.5